This is the latest recevied weather packets stored in our database for station/object W4OA. If no packets are shown the sender has not sent any weather packets the latest 10 day(s).
| Time | Temp. | Humidity | Pressure | Rain* | Wind** | Luminosity | Snow |
|---|---|---|---|---|---|---|---|
| 1778002800 | 23.33° C | 52% | 1009 hPa | 0 mm | - | 0 W/m² | - |
| 1778002499 | 23.33° C | 55% | 1009 hPa | 0 mm | - | 0 W/m² | - |
| 1778002199 | 22.78° C | 53% | 1009 hPa | 0 mm | - | 0 W/m² | - |
| 1778001900 | 22.78° C | 54% | 1010 hPa | 0 mm | - | 0 W/m² | - |
| 1778001599 | 22.78° C | 53% | 1009 hPa | 0 mm | - | 0 W/m² | - |
| 1778001301 | 22.78° C | 53% | 1009 hPa | 0 mm | - | 0 W/m² | - |
| 1778000999 | 22.78° C | 53% | 1009 hPa | 0 mm | - | 0 W/m² | - |
| 1778000700 | 23.33° C | 54% | 1009 hPa | 0 mm | - | 0 W/m² | - |
| 1778000398 | 22.22° C | 51% | 1009 hPa | 0 mm | - | 0 W/m² | - |
| 1778000099 | 22.22° C | 51% | 1009 hPa | 0 mm | - | 0 W/m² | - |
| 1777999799 | 22.78° C | 52% | 1009 hPa | 0 mm | - | 0 W/m² | - |
| 1777999500 | 22.22° C | 53% | 1009 hPa | 0 mm | - | 0 W/m² | - |
| 1777999199 | 22.22° C | 53% | 1010 hPa | 0 mm | - | 0 W/m² | - |
| 1777998899 | 22.22° C | 52% | 1010 hPa | 0 mm | - | 0 W/m² | - |
| 1777998600 | 22.22° C | 53% | 1010 hPa | 0 mm | - | 0 W/m² | - |
| 1777998301 | 22.22° C | 52% | 1010 hPa | 0 mm | - | 0 W/m² | - |
| 1777998001 | 22.22° C | 51% | 1010 hPa | 0 mm | - | 0 W/m² | - |
| 1777997700 | 22.22° C | 54% | 1010 hPa | 0 mm | - | 0 W/m² | - |
| 1777997399 | 21.67° C | 53% | 1010 hPa | 0 mm | - | 0 W/m² | - |
| 1777997099 | 21.67° C | 52% | 1010 hPa | 0 mm | - | 0 W/m² | - |
| 1777996799 | 21.67° C | 53% | 1010 hPa | 0 mm | - | 0 W/m² | - |
| 1777996499 | 21.67° C | 52% | 1010 hPa | 0 mm | - | 0 W/m² | - |
| 1777996199 | 21.11° C | 53% | 1010 hPa | 0 mm | - | 0 W/m² | - |
| 1777995899 | 21.11° C | 52% | 1010 hPa | 0 mm | - | 0 W/m² | - |
| 1777995599 | 21.67° C | 54% | 1010 hPa | 0 mm | - | 0 W/m² | - |
* Rain latest hour (hover to see other rain measurements)
** Current wind speed in m/s (hover to see current wind gust speed)